• In Hungary
  • List of Countries
  • For 7 days
  • Water Temperature
  • Satellite Maps
  • Weather Map
  • News
  • Weather Widgets
  • user-avatar
    Login

    Hourly Weather Ballycastle

    Today, 22 January, Monday

    Time Temperature Precipitation Wind Pressure Humidity
    00:00 +3°C° 0.1 mm 7 mps 748 mmHg 91%
    01:00 +3°C° 0.1 mm 7 mps 748 mmHg 91%
    02:00 +2°C° 0.1 mm 8 mps 749 mmHg 91%
    03:00 +2°C° 0.1 mm 8 mps 749 mmHg 91%
    04:00 +2°C° 0.1 mm 8 mps 749 mmHg 91%
    05:00 +2°C° 0.1 mm 8 mps 750 mmHg 91%
    06:00 +2°C° 0.1 mm 8 mps 750 mmHg 91%
    07:00 +2°C° 0 mm 8 mps 750 mmHg 91%
    08:00 +2°C° 0 mm 8 mps 751 mmHg 91%
    09:00 +2°C° 0 mm 8 mps 751 mmHg 91%
    10:00 +3°C° 0 mm 7 mps 752 mmHg 90%
    11:00 +4°C° 0 mm 7 mps 753 mmHg 89%
    12:00 +4°C° 0 mm 7 mps 753 mmHg 89%
    13:00 +4°C° 0 mm 7 mps 753 mmHg 89%
    14:00 +4°C° 0 mm 6 mps 753 mmHg 90%
    15:00 +4°C° 0 mm 6 mps 753 mmHg 90%
    16:00 +4°C° 0 mm 6 mps 753 mmHg 91%
    17:00 +3°C° 0 mm 6 mps 753 mmHg 91%
    18:00 +3°C° 0 mm 6 mps 753 mmHg 91%
    19:00 +3°C° 0 mm 6 mps 753 mmHg 91%
    20:00 +3°C° 0 mm 7 mps 753 mmHg 91%
    21:00 +4°C° 0 mm 7 mps 753 mmHg 91%
    22:00 +4°C° 0 mm 7 mps 752 mmHg 91%
    23:00 +4°C° 0 mm 8 mps 752 mmHg 91%

    Tomorrow, 23 January, Tuesday

    Time Temperature Precipitation Wind Pressure Humidity
    00:00 +4°C° 0 mm 8 mps 751 mmHg 92%
    01:00 +5°C° 0.2 mm 8 mps 750 mmHg 92%
    02:00 +6°C° 0.2 mm 8 mps 749 mmHg 93%
    03:00 +6°C° 0.2 mm 8 mps 749 mmHg 94%
    04:00 +7°C° 0.1 mm 8 mps 748 mmHg 94%
    05:00 +7°C° 0.1 mm 8 mps 747 mmHg 93%
    06:00 +9°C° 0.1 mm 8 mps 746 mmHg 93%
    07:00 +9°C° 0.5 mm 8 mps 746 mmHg 93%
    08:00 +9°C° 0.5 mm 7 mps 746 mmHg 93%
    09:00 +8°C° 0.5 mm 7 mps 746 mmHg 94%
    10:00 +8°C° 0.2 mm 7 mps 746 mmHg 91%
    11:00 +9°C° 0.2 mm 8 mps 746 mmHg 88%
    12:00 +9°C° 0.2 mm 8 mps 746 mmHg 85%
    13:00 +7°C° 0.3 mm 8 mps 746 mmHg 85%
    14:00 +7°C° 0.3 mm 8 mps 746 mmHg 84%
    15:00 +7°C° 0.3 mm 8 mps 746 mmHg 84%
    16:00 +6°C° 0.1 mm 8 mps 746 mmHg 85%
    17:00 +5°C° 0.1 mm 8 mps 746 mmHg 87%
    18:00 +4°C° 0.1 mm 7 mps 746 mmHg 88%
    19:00 +4°C° 0 mm 8 mps 745 mmHg 89%
    20:00 +4°C° 0 mm 8 mps 745 mmHg 89%
    21:00 +4°C° 0 mm 8 mps 744 mmHg 90%
    22:00 +5°C° 0.4 mm 9 mps 743 mmHg 90%
    23:00 +5°C° 0.4 mm 10 mps 741 mmHg 90%

    Day after tomorrow, 24 January, Wednesday

    Time Temperature Precipitation Wind Pressure Humidity
    00:00 +6°C° 0.4 mm 11 mps 739 mmHg 90%
    01:00 +4°C° 1.9 mm 11 mps 739 mmHg 89%
    02:00 +4°C° 1.9 mm 11 mps 738 mmHg 88%
    03:00 +3°C° 1.9 mm 11 mps 738 mmHg 87%
    04:00 +3°C° 0.3 mm 11 mps 739 mmHg 86%
    05:00 +2°C° 0.3 mm 10 mps 740 mmHg 84%
    06:00 +1°C° 0.3 mm 10 mps 741 mmHg 83%
    07:00 +1°C° 0 mm 10 mps 741 mmHg 83%
    08:00 +1°C° 0 mm 9 mps 741 mmHg 83%
    09:00 +1°C° 0 mm 9 mps 741 mmHg 83%
    10:00 +1°C° 0.1 mm 9 mps 741 mmHg 83%
    11:00 +2°C° 0.1 mm 10 mps 742 mmHg 82%
    12:00 +3°C° 0.1 mm 10 mps 742 mmHg 81%
    13:00 +3°C° 0.2 mm 9 mps 741 mmHg 80%
    14:00 +4°C° 0.2 mm 8 mps 741 mmHg 80%
    15:00 +4°C° 0.2 mm 8 mps 741 mmHg 79%
    16:00 +4°C° 0 mm 8 mps 741 mmHg 81%
    17:00 +2°C° 0 mm 8 mps 741 mmHg 82%
    18:00 +1°C° 0 mm 8 mps 741 mmHg 84%
    19:00 +1°C° 0 mm 8 mps 741 mmHg 84%
    20:00 +1°C° 0 mm 8 mps 741 mmHg 83%
    21:00 +1°C° 0 mm 8 mps 741 mmHg 83%
    22:00 +1°C° 0 mm 9 mps 741 mmHg 82%
    23:00 +1°C° 0 mm 9 mps 740 mmHg 80%

    25 January, Thursday

    Time Temperature Precipitation Wind Pressure Humidity
    00:00 +1°C° 0 mm 10 mps 740 mmHg 79%
    01:00 +1°C° 0.1 mm 10 mps 739 mmHg 80%
    02:00 +1°C° 0.1 mm 10 mps 739 mmHg 80%
    03:00 +1°C° 0.1 mm 10 mps 738 mmHg 80%
    04:00 +1°C° 0 mm 10 mps 738 mmHg 80%
    05:00 +1°C° 0 mm 10 mps 738 mmHg 79%
    06:00 +1°C° 0 mm 10 mps 738 mmHg 78%
    07:00 +1°C° 0 mm 10 mps 738 mmHg 78%
    08:00 +1°C° 0 mm 10 mps 738 mmHg 78%
    09:00 +1°C° 0 mm 10 mps 739 mmHg 78%
    10:00 +2°C° 0.1 mm 10 mps 739 mmHg 78%
    11:00 +3°C° 0.1 mm 10 mps 740 mmHg 78%
    12:00 +5°C° 0.1 mm 10 mps 741 mmHg 78%
    13:00 +5°C° 0.3 mm 10 mps 742 mmHg 78%
    14:00 +5°C° 0.3 mm 10 mps 742 mmHg 79%
    15:00 +5°C° 0.3 mm 10 mps 743 mmHg 79%
    16:00 +3°C° 0.2 mm 11 mps 745 mmHg 80%
    17:00 +3°C° 0.2 mm 11 mps 746 mmHg 81%
    18:00 +3°C° 0.2 mm 12 mps 748 mmHg 82%
    19:00 +2°C° 0.1 mm 12 mps 750 mmHg 79%
    20:00 +2°C° 0.1 mm 11 mps 751 mmHg 77%
    21:00 +2°C° 0.1 mm 11 mps 753 mmHg 75%
    22:00 +1°C° 0.1 mm 11 mps 755 mmHg 73%
    23:00 +1°C° 0.1 mm 10 mps 756 mmHg 72%

    26 January, Friday

    Time Temperature Precipitation Wind Pressure Humidity
    00:00 0°C° 0.1 mm 10 mps 758 mmHg 70%
    01:00 0°C° 0 mm 9 mps 759 mmHg 71%
    02:00 0°C° 0 mm 8 mps 760 mmHg 71%
    03:00 0°C° 0 mm 8 mps 761 mmHg 72%
    04:00 0°C° 0.1 mm 8 mps 761 mmHg 73%
    05:00 0°C° 0.1 mm 8 mps 762 mmHg 74%
    06:00 0°C° 0.1 mm 8 mps 763 mmHg 75%
    07:00 -1°C° 0 mm 7 mps 764 mmHg 75%
    08:00 -1°C° 0 mm 7 mps 765 mmHg 75%
    09:00 -1°C° 0 mm 7 mps 765 mmHg 75%
    10:00 +1°C° 0 mm 6 mps 766 mmHg 73%
    11:00 +2°C° 0 mm 5 mps 766 mmHg 71%
    12:00 +3°C° 0 mm 5 mps 767 mmHg 68%
    13:00 +3°C° 0 mm 5 mps 767 mmHg 70%
    14:00 +3°C° 0 mm 5 mps 767 mmHg 71%
    15:00 +4°C° 0 mm 4 mps 767 mmHg 73%
    16:00 +2°C° 0.1 mm 5 mps 767 mmHg 76%
    17:00 +2°C° 0.1 mm 5 mps 767 mmHg 79%
    18:00 +2°C° 0.1 mm 6 mps 767 mmHg 82%
    19:00 +2°C° 0.1 mm 6 mps 767 mmHg 84%
    20:00 +2°C° 0.1 mm 6 mps 767 mmHg 85%
    21:00 +2°C° 0.1 mm 7 mps 767 mmHg 87%
    22:00 +2°C° 0.3 mm 7 mps 767 mmHg 89%
    23:00 +2°C° 0.3 mm 7 mps 766 mmHg 90%

    27 January, Saturday

    Time Temperature Precipitation Wind Pressure Humidity
    00:00 +3°C° 0.3 mm 7 mps 766 mmHg 92%
    01:00 +3°C° 0.9 mm 7 mps 766 mmHg 93%
    02:00 +3°C° 0.9 mm 7 mps 765 mmHg 93%
    03:00 +3°C° 0.9 mm 7 mps 765 mmHg 94%
    04:00 +4°C° 0.8 mm 7 mps 764 mmHg 95%
    05:00 +5°C° 0.8 mm 6 mps 764 mmHg 95%
    06:00 +5°C° 0.8 mm 6 mps 764 mmHg 96%
    07:00 +6°C° 0.3 mm 7 mps 764 mmHg 95%
    08:00 +8°C° 0.3 mm 7 mps 764 mmHg 94%
    09:00 +7°C° 0.3 mm 8 mps 765 mmHg 94%
    10:00 +9°C° 0.1 mm 8 mps 765 mmHg 93%
    11:00 +9°C° 0.1 mm 8 mps 765 mmHg 93%
    12:00 +9°C° 0.1 mm 8 mps 765 mmHg 92%
    13:00 +9°C° 0.1 mm 8 mps 765 mmHg 92%
    14:00 +10°C° 0.1 mm 9 mps 765 mmHg 92%
    15:00 +10°C° 0.1 mm 9 mps 765 mmHg 91%
    16:00 +10°C° 0 mm 9 mps 765 mmHg 91%
    17:00 +10°C° 0 mm 9 mps 766 mmHg 91%
    18:00 +10°C° 0 mm 8 mps 766 mmHg 92%
    19:00 +10°C° 0 mm 9 mps 766 mmHg 91%
    20:00 +10°C° 0 mm 9 mps 767 mmHg 91%
    21:00 +8°C° 0 mm 9 mps 767 mmHg 91%
    22:00 +9°C° 0 mm 8 mps 767 mmHg 91%
    23:00 +9°C° 0 mm 8 mps 768 mmHg 92%
    Show more